Regional Weather Roundup
Issued by NWS

Home | Current Version | Previous Version | Text Only | Print | Product List | Glossary On
Versions: 1 2 3 4 5 6 7 8 9 10 11 12 13 14 15 16 17 18 19 20 21 22 23 24 25 26 27 28 29 30 31 32 33 34 35 36 37 38 39 40 41 42 43 44 45 46 47 48 49 50
101
ASCA42 TJSJ 312310
RWRPR
PUERTO RICO/U.S. VIRGIN ISLANDS HOURLY WEATHER ROUNDUP
NATIONAL WEATHER SERVICE SAN JUAN PR
700 PM AST TUE MAY 31 2016

PRZ001-004-010000-
PUERTO RICO

CITY           SKY/WX    TMP DP  RH WIND       PRES   REMARKS
SAN JUAN LMM   LGT RAIN  79  79 100 E3        29.95R FOG
AGUADILLA      CLOUDY    81  75  83 E10       29.94R
CEIBA          MOCLDY    81  75  83 E12       29.98R
$$

PRZ006-007-010000-
U.S. VIRGIN ISLANDS

CITY           SKY/WX    TMP DP  RH WIND       PRES   REMARKS
CHARLOTTE AMA  PTCLDY    84  75  74 E17G24    29.95R HX  92
CHRISTIANSTED  PTCLDY    82  75  78 E14       29.96R
$$

HOURLY WEATHER ROUNDUP FOR THE NEWS MEDIA

CITY           SKY/WX    TMP DP  RH WIND       PRES   REMARKS
ORLANDO        PTSUNNY   87  71  58 SE13      29.88S THUNDER HX  93
NEW YORK       MOSUNNY   70  66  87 S9        29.95R
NEWARK         MOSUNNY   79  64  60 S6        29.92R
CHICAGO        LGT RAIN  66  63  90 NE10      29.98F
HARTFORD       SUNNY     74  62  66 SW9       29.89R
BOSTON         MOSUNNY   83  49  30 W8        29.86R
DALLAS         TSTM      69  68  96 N18       29.87F FOG
PHILADELPHIA   MOSUNNY   85  49  28 N5        29.93S
LOS ANGELES    CLOUDY    66  57  72 SW12      29.85F
WASHINGTON DC  PTSUNNY   85  54  34 N8        29.95R



USA.gov is the U.S. government's official web portal to all federal, state and local government web resources and services.